TimeMDT,TemperatureF,Dew PointF,Humidity,Sea Level PressureIn,VisibilityMPH,Wind Direction,Wind SpeedMPH,Gust SpeedMPH,PrecipitationIn,Events,Conditions,WindDirDegrees,DateUTC
12:10 AM,46.4,41.0,81,30.25,10.0,Calm,Calm,-,N/A,,Clear,0,2013-08-15 06:10:00
12:30 AM,44.6,39.2,81,30.26,10.0,SSW,3.5,-,N/A,,Partly Cloudy,210,2013-08-15 06:30:00
12:50 AM,42.8,39.2,87,30.26,10.0,Calm,Calm,-,N/A,,Partly Cloudy,0,2013-08-15 06:50:00
1:10 AM,42.8,37.4,81,30.26,10.0,Calm,Calm,-,N/A,,Clear,0,2013-08-15 07:10:00
1:30 AM,41.0,41.0,100,30.26,10.0,Calm,Calm,-,N/A,,Clear,0,2013-08-15 07:30:00
1:50 AM,41.0,39.2,93,30.26,10.0,SW,4.6,-,N/A,,Clear,220,2013-08-15 07:50:00
2:10 AM,41.0,37.4,87,30.25,10.0,Calm,Calm,-,N/A,,Clear,0,2013-08-15 08:10:00
2:30 AM,41.0,35.6,81,30.26,10.0,Calm,Calm,-,N/A,,Clear,0,2013-08-15 08:30:00
2:50 AM,39.2,35.6,87,30.26,10.0,Calm,Calm,-,N/A,,Clear,0,2013-08-15 08:50:00
3:10 AM,39.2,35.6,87,30.26,10.0,Calm,Calm,-,N/A,,Clear,0,2013-08-15 09:10:00
3:30 AM,37.4,33.8,87,30.27,10.0,Calm,Calm,-,N/A,,Clear,0,2013-08-15 09:30:00
3:50 AM,37.4,32.0,81,30.27,10.0,Calm,Calm,-,N/A,,Clear,0,2013-08-15 09:50:00
4:10 AM,37.4,32.0,81,30.27,10.0,Calm,Calm,-,N/A,,Clear,0,2013-08-15 10:10:00
4:30 AM,35.6,32.0,87,30.27,10.0,Calm,Calm,-,N/A,,Clear,0,2013-08-15 10:30:00
4:50 AM,35.6,32.0,87,30.27,10.0,Calm,Calm,-,N/A,,Clear,0,2013-08-15 10:50:00
5:10 AM,33.8,30.2,87,30.27,10.0,Calm,Calm,-,N/A,,Clear,0,2013-08-15 11:10:00
5:30 AM,33.8,30.2,87,30.28,10.0,Calm,Calm,-,N/A,,Clear,0,2013-08-15 11:30:00
5:50 AM,32.0,28.4,87,30.28,10.0,SW,3.5,-,N/A,,Clear,220,2013-08-15 11:50:00
6:10 AM,32.0,28.4,87,30.28,10.0,Calm,Calm,-,N/A,,Clear,0,2013-08-15 12:10:00
6:30 AM,32.0,28.4,87,30.28,10.0,Calm,Calm,-,N/A,,Clear,0,2013-08-15 12:30:00
6:50 AM,32.0,28.4,87,30.29,10.0,Calm,Calm,-,N/A,,Clear,0,2013-08-15 12:50:00
7:10 AM,32.0,28.4,87,30.29,10.0,Calm,Calm,-,N/A,,Clear,0,2013-08-15 13:10:00
7:30 AM,35.6,32.0,87,30.29,10.0,Calm,Calm,-,N/A,,Clear,0,2013-08-15 13:30:00
7:50 AM,39.2,35.6,87,30.30,10.0,Calm,Calm,-,N/A,,Clear,0,2013-08-15 13:50:00
8:10 AM,42.8,39.2,87,30.30,10.0,Calm,Calm,-,N/A,,Clear,0,2013-08-15 14:10:00
8:30 AM,46.4,41.0,81,30.30,10.0,Calm,Calm,-,N/A,,Clear,0,2013-08-15 14:30:00
8:50 AM,48.2,44.6,87,30.31,10.0,Calm,Calm,-,N/A,,Clear,0,2013-08-15 14:50:00
9:10 AM,51.8,48.2,88,30.31,10.0,Calm,Calm,-,N/A,,Clear,0,2013-08-15 15:10:00
9:30 AM,55.4,50.0,82,30.31,10.0,Calm,Calm,-,N/A,,Clear,0,2013-08-15 15:30:00
9:50 AM,59.0,53.6,82,30.30,10.0,East,3.5,-,N/A,,Clear,80,2013-08-15 15:50:00
10:10 AM,62.6,57.2,82,30.30,10.0,Calm,Calm,-,N/A,,Clear,0,2013-08-15 16:10:00
10:30 AM,64.4,59.0,83,30.29,10.0,Calm,Calm,-,N/A,,Clear,0,2013-08-15 16:30:00
10:50 AM,64.4,60.8,88,30.29,10.0,Calm,Calm,-,N/A,,Clear,0,2013-08-15 16:50:00
11:10 AM,66.2,62.6,88,30.29,10.0,ESE,3.5,-,N/A,,Clear,110,2013-08-15 17:10:00
11:30 AM,71.6,66.2,83,30.28,10.0,Calm,Calm,-,N/A,,Clear,0,2013-08-15 17:30:00
11:50 AM,73.4,68.0,83,30.28,10.0,SW,4.6,-,N/A,,Clear,220,2013-08-15 17:50:00
12:10 PM,77.0,71.6,83,30.27,10.0,SW,5.8,-,N/A,,Clear,230,2013-08-15 18:10:00
12:30 PM,80.6,75.2,84,30.27,10.0,WSW,6.9,-,N/A,,Clear,240,2013-08-15 18:30:00
12:50 PM,78.8,73.4,83,30.26,10.0,NNW,11.5,16.1,N/A,,Clear,340,2013-08-15 18:50:00
1:10 PM,78.8,75.2,89,30.26,10.0,NW,6.9,-,N/A,,Clear,320,2013-08-15 19:10:00
1:30 PM,80.6,75.2,84,30.25,10.0,NW,5.8,-,N/A,,Clear,310,2013-08-15 19:30:00
1:50 PM,80.6,75.2,84,30.25,10.0,South,4.6,-,N/A,,Clear,190,2013-08-15 19:50:00
2:10 PM,82.4,77.0,84,30.24,10.0,West,9.2,16.1,N/A,,Clear,270,2013-08-15 20:10:00
2:30 PM,82.4,77.0,84,30.23,10.0,East,6.9,-,N/A,,Clear,100,2013-08-15 20:30:00
2:50 PM,82.4,77.0,84,30.23,10.0,WNW,4.6,-,N/A,,Clear,290,2013-08-15 20:50:00
3:10 PM,84.2,78.8,84,30.22,10.0,SW,10.4,17.3,N/A,,Clear,230,2013-08-15 21:10:00
3:30 PM,86.0,80.6,84,30.22,10.0,SW,10.4,23.0,N/A,,Clear,220,2013-08-15 21:30:00
3:50 PM,84.2,80.6,89,30.22,10.0,West,10.4,-,N/A,,Clear,260,2013-08-15 21:50:00
4:10 PM,84.2,80.6,89,30.22,10.0,NW,4.6,38.0,N/A,,Clear,310,2013-08-15 22:10:00
4:30 PM,84.2,78.8,84,30.21,10.0,SW,8.1,-,N/A,,Clear,220,2013-08-15 22:30:00
4:50 PM,84.2,78.8,84,30.21,10.0,NW,8.1,20.7,N/A,,Clear,320,2013-08-15 22:50:00
5:10 PM,84.2,80.6,89,30.21,10.0,West,6.9,20.7,N/A,,Clear,260,2013-08-15 23:10:00
5:30 PM,84.2,78.8,84,30.21,10.0,WSW,8.1,-,N/A,,Clear,250,2013-08-15 23:30:00
5:50 PM,84.2,78.8,84,30.21,10.0,SW,6.9,-,N/A,,Clear,220,2013-08-15 23:50:00
6:10 PM,84.2,78.8,84,30.21,10.0,SW,11.5,16.1,N/A,,Clear,220,2013-08-16 00:10:00
6:30 PM,82.4,77.0,84,30.21,10.0,SW,9.2,17.3,N/A,,Clear,220,2013-08-16 00:30:00
6:50 PM,82.4,77.0,84,30.20,10.0,SSW,10.4,-,N/A,,Clear,210,2013-08-16 00:50:00
7:10 PM,80.6,75.2,84,30.20,10.0,SW,9.2,-,N/A,,Clear,220,2013-08-16 01:10:00
7:30 PM,80.6,75.2,84,30.21,10.0,SW,8.1,-,N/A,,Clear,220,2013-08-16 01:30:00
7:50 PM,77.0,73.4,89,30.21,10.0,SSW,6.9,-,N/A,,Clear,210,2013-08-16 01:50:00
8:10 PM,75.2,71.6,89,30.21,10.0,SSW,5.8,-,N/A,,Clear,210,2013-08-16 02:10:00
8:30 PM,71.6,66.2,83,30.21,10.0,SSW,5.8,-,N/A,,Clear,210,2013-08-16 02:30:00
8:50 PM,71.6,66.2,83,30.22,10.0,SSW,8.1,-,N/A,,Clear,210,2013-08-16 02:50:00
9:10 PM,69.8,64.4,83,30.22,10.0,SSW,6.9,-,N/A,,Clear,210,2013-08-16 03:10:00
9:30 PM,68.0,64.4,88,30.22,10.0,SSW,8.1,-,N/A,,Clear,210,2013-08-16 03:30:00
9:50 PM,68.0,64.4,88,30.23,10.0,SSW,5.8,-,N/A,,Clear,210,2013-08-16 03:50:00
10:10 PM,62.6,57.2,82,30.24,10.0,North,3.5,-,N/A,,Clear,10,2013-08-16 04:10:00
10:30 PM,62.6,57.2,82,30.24,10.0,NNE,5.8,-,N/A,,Clear,30,2013-08-16 04:30:00
10:50 PM,60.8,55.4,82,30.24,10.0,Calm,Calm,-,N/A,,Clear,0,2013-08-16 04:50:00
11:10 PM,57.2,53.6,88,30.24,10.0,East,4.6,-,N/A,,Clear,90,2013-08-16 05:10:00
11:30 PM,57.2,53.6,88,30.24,10.0,Calm,Calm,-,N/A,,Clear,0,2013-08-16 05:30:00
11:50 PM,51.8,46.4,82,30.24,10.0,West,3.5,-,N/A,,Clear,260,2013-08-16 05:50:00